Skip Page Navigation
NASA JPL Caltech
NASA Logo - Jet Propulsion Laboratory + View the NASA Portal
+ Center for Near-Earth Object Studies
JPL Home Earth Solar System Stars & Galaxies Technology
JPL Solar System Dynamics
BODIES ORBITS EPHEMERIDES TOOLS PHYSICAL DATA DISCOVERY FAQ SITE MAP
JPL Small-Body Database Browser
Search: [ help ]  
136486 (2005 GY95)
Classification: Main-belt Asteroid          SPK-ID: 2136486
Ephemeris | Orbit Diagram | Orbital Elements | Mission Design | Physical Parameters | Discovery Circumstances | Close-Approach Data ]

[ show orbit diagram ]
Orbital Elements at Epoch 2459000.5 (2020-May-31.0) TDB
Reference: JPL 18 (heliocentric ecliptic J2000)
 Element Value Uncertainty (1-sigma)   Units 
e .1236843970506833 5.4532e-08  
a 3.123606951554861 4.0012e-08 au
q 2.737265509128475 1.7011e-07 au
i 28.45942948655557 6.6588e-06 deg
node 79.92368219519834 1.1391e-05 deg
peri 215.7115841034297 3.1908e-05 deg
M 199.3017641534944 3.4011e-05 deg
tp 2459900.601750270881
(2022-Nov-17.10175027)
0.00019759 TDB
period 2016.429293019916
5.52
3.8744e-05
1.061e-07
d
yr
n .1785334111372902 3.4304e-09 deg/d
Q 3.509948393981247 4.4961e-08 au
  Orbit Determination Parameters
   # obs. used (total)      388  
   data-arc span      6715 days (18.38 yr)  
   first obs. used      2001-09-11  
   last obs. used      2020-01-30  
   planetary ephem.      DE431  
   SB-pert. ephem.      SB431-N16  
   condition code      0  
   norm. resid. RMS      .62227  
   source      ORB  
   producer      Otto Matic  
   solution date      2020-Feb-24 07:40:39  

Additional Information
 Earth MOID = 1.75256 au 
 Jupiter MOID = 1.6782 au 
 T_jup = 3.018 
[ show covariance matrix ]

Ephemeris | Orbit Diagram | Orbital Elements | Mission Design | Physical Parameters | Discovery Circumstances | Close-Approach Data ]

Physical Parameter Table
Parameter Symbol Value Units Sigma Reference Notes
absolute magnitude H 14.5   n/a MPO412866  
diameter diameter 7.105 km 0.170 urn:nasa:pds:neowise_diameters_albedos::2.0[mainbelt] (http://adsabs.harvard.edu/abs/2011ApJ...741...68M)  
geometric albedo albedo 0.061   0.015 urn:nasa:pds:neowise_diameters_albedos::2.0[mainbelt] (http://adsabs.harvard.edu/abs/2011ApJ...741...68M)  

136486 (2005 GY95)          Discovered 2005-Apr-06 by LONEOS at Anderson Mesa
Reference: 20060907/Numbers.arcLast Updated: 2006-09-10

[ show close-approach data ]
Ephemeris | Orbit Diagram | Orbital Elements | Mission Design | Physical Parameters | Discovery Circumstances | Close-Approach Data ]
ABOUT SSD CREDITS/AWARDS PRIVACY/COPYRIGHT GLOSSARY LINKS
FirstGov 2020-Jul-03 21:21 UT
(server date/time)  
NASA Home Page
Site Manager:   Ryan S. Park
Webmaster  Alan B. Chamberlin